OpenBCM V1.08-5-g2f4a (Linux)

Packet Radio Mailbox

IZ3LSV

[San Dona' di P. JN]

 Login: GUEST





  
CX2SA  > KEPS     20.06.25 01:27l 342 Lines 16281 Bytes #43 (0) @ AMSAT
BID : ORB25171.1
Read: GUEST
Subj: 2Line Orbital Elements 25171.AMSAT
Path: IZ3LSV<ED1ZAC<CX2SA
Sent: 250620/0024Z @:CX2SA.SAL.URY.SOAM #:52895 [Salto] FBB7.00e $:ORB25171.1
From: CX2SA@CX2SA.SAL.URY.SOAM
To  : KEPS@AMSAT


QST de W1STR

AMSAT Orbital Elements for Amateur Satellites in TLE Format
>From Orbital Analysis Office
New England Sci-Tech STEM Education Center
Natick, MA June 20, 2025
To all radio amateurs


These element sets describe the orbits of various satellites
in use by the amateur radio community. For details see:
www.amsat.org/keplerian-elements-formats/

A daily update of element sets is available at:
www.amsat.org/tle/daily-bulletin.txt
or without bulletin text:
www.amsat.org/tle/dailytle.txt


AO-07
1 07530U 74089B   25170.48169001 -.00000039  00000-0  44464-4 0  9996
2 07530 101.9926 174.8510 0012629 102.9448  51.7110 12.53689662315067
UO-11
1 14781U 84021B   25170.47687783  .00001125  00000-0  12414-3 0  9995
2 14781  97.7548 136.6496 0006583 312.2328  47.8330 14.89415637203111
AO-27
1 22825U 93061C   25170.42766485  .00000087  00000-0  50472-4 0  9992
2 22825  98.7361 232.0321 0009561  85.4741 274.7534 14.30802768655128
FO-29
1 24278U 96046B   25170.43740965 -.00000034  00000-0  47943-5 0  9991
2 24278  98.5750  63.0318 0349184 317.2194  40.2245 13.53249381424103
NOAA-15
1 25338U 98030A   25170.83832127  .00000193  00000-0  97018-4 0  9992
2 25338  98.5342 195.7223 0009600 335.9586  24.1145 14.26985165409868
GO-32
1 25397U 98043D   25170.38616572  .00000068  00000-0  49338-4 0  9998
2 25397  98.9705 149.7100 0001628 139.5435 220.5865 14.24317518399684
ISS
1 25544U 98067A   25170.84180773  .00011008  00000-0  19968-3 0  9999
2 25544  51.6360 293.9192 0002099 260.7274  99.3478 15.50128573515576
NO-44
1 26931U 01043C   25170.21608027  .00000140  00000-0  83658-4 0  9999
2 26931  67.0506 102.9256 0006083 276.2786  83.7623 14.31739298238646
SO-50
1 27607U 02058C   25170.40717840  .00001145  00000-0  15977-3 0  9996
2 27607  64.5510 170.2002 0057484 331.8423  27.9576 14.81648876210685
CO-55
1 27844U 03031E   25170.44655803  .00000296  00000-0  14791-3 0  9994
2 27844  98.6752 178.5926 0010172 152.2970 207.8753 14.24003936140042
CO-57
1 27848U 03031J   25169.27481770  .00000240  00000-0  12506-3 0  9998
2 27848  98.6781 177.4349 0009634 172.2218 187.9111 14.23336789139603
RS-22
1 27939U 03042A   25170.87831495  .00000848  00000-0  14230-3 0  9992
2 27939  98.3288 340.5788 0010969 343.9051 152.3617 14.72377295162343
CO-58
1 28895U 05043F   25170.38112202  .00001324  00000-0  22387-3 0  9993
2 28895  98.2510 314.8542 0013200 276.1855  83.7847 14.71044672 48382
CO-65
1 32785U 08021C   25170.78120313  .00003747  00000-0  27170-3 0  9997
2 32785  97.7860 142.0203 0010114 166.2247 193.9257 15.04522413930680
CO-66
1 32791U 08021J   25170.38839263  .00009664  00000-0  46594-3 0  9996
2 32791  97.7276 150.6488 0005539 120.8060 239.3719 15.18918723931982
RS-30
1 32953U 08025A   25170.86427784  .00000017  00000-0  49091-4 0  9993
2 32953  82.5021 220.7823 0019646  27.3371 332.8739 12.43165383774813
NOAA-19
1 33591U 09005A   25170.82257147  .00000168  00000-0  11362-3 0  9997
2 33591  98.9968 235.5844 0013203 339.2493  20.8141 14.13379180843553
SRMSAT
1 37841U 11058D   25170.51289435  .00000397  00000-0  71555-4 0  9996
2 37841  19.9719  94.4357 0011861 173.6640 343.2959 14.11439288706512
ZACUBE-1
1 39417U 13066B   25170.34709787  .00004553  00000-0  39565-3 0  9998
2 39417  97.7796 127.3077 0044527  21.5734 338.7350 14.96738304626370
Delfi-N3xt
1 39428U 13066N   25170.24169189  .00006359  00000-0  64669-3 0  9994
2 39428  97.8343  87.7843 0083789 329.9074  29.7342 14.88520923620511
GOMX-1
1 39430U 13066Q   25170.84905079  .00001590  00000-0  25246-3 0  9999
2 39430  97.6827  28.8832 0132851 158.9706 201.7035 14.67673723616914
LO-74
1 39440U 13066AA  25170.75120006  .00002330  00000-0  23880-3 0  9994
2 39440  97.8496 115.2411 0062787 145.2391 215.2954 14.89992218624154
AO-73
1 39444U 13066AE  25169.87117147  .00005603  00000-0  41919-3 0  9990
2 39444  97.7826 131.8228 0042019 358.6283   1.4820 15.02459473624985
DTUSAT-2
1 40030U 14033W   25170.37484264  .00005468  00000-0  35577-3 0  9994
2 40030  98.0555 142.6675 0010192  37.2928 322.9005 15.08382592597876
EO-80
1 40032U 14033Y   25170.72625153  .00005544  00000-0  35998-3 0  9991
2 40032  98.0438 142.6765 0007748 337.8981  22.1911 15.08470798598422
LILACSAT-2
1 40908U 15049K   25170.81743306  .00009421  00000-0  24468-3 0  9990
2 40908  97.5055 191.4113 0010975 119.6378 240.5961 15.39127842539805
IO-86
1 40931U 15052B   25151.18580175  .00001241  00000-0  78118-4 0  9996
2 40931   6.0006  24.0987 0012733 338.8432  21.1169 14.78805930523047
Horyu-4
1 41340U 16012D   25170.08796821  .00019403  00000-0  51108-3 0  9993
2 41340  30.9971  67.9778 0005764 163.0072 197.0767 15.37264580514253
Lapan A3
1 41603U 16040E   25170.83478839  .00002939  00000-0  10385-3 0  9993
2 41603  97.1367 175.0399 0009549 225.8517 134.1940 15.29923718499359
CAS-2T
1 41847U 16066G   25170.45609509  .00001685  00000-0  24650-3 0  9996
2 41847  98.4198 244.8326 0346811 148.4776 213.7713 14.43514266452443
CAS-4B
1 42759U 17034B   25170.68564266  .00063289  00000-0  62752-3 0  9993
2 42759  43.0062 261.5914 0020647 357.2022   2.8725 15.64659534444185
CAS-4A
1 42761U 17034D   25170.71025486  .00059573  00000-0  55994-3 0  9997
2 42761  43.0101 258.4864 0021783   1.9872 358.1077 15.65980484444212
TechnoSat
1 42829U 17042E   25170.83842381  .00001726  00000-0  13667-3 0  9993
2 42829  97.3872 339.0620 0014575 237.5438 122.4378 15.01755840432260
AO-91
1 43017U 17073E   25170.43487883  .00007280  00000-0  37027-3 0  9992
2 43017  97.5258  40.9580 0173706 132.6295 228.9728 15.04870099410692
S-Net D
1 43186U 18014G   25170.16184388  .00003763  00000-0  22333-3 0  9995
2 43186  97.5616  72.9707 0008863 181.1690 178.9521 15.11910122403824
S-Net B
1 43187U 18014H   25170.16736440  .00003555  00000-0  21128-3 0  9998
2 43187  97.5623  72.9484 0009692 177.0821 183.0467 15.11890436403827
S-Net A
1 43188U 18014J   25170.29456236  .00003526  00000-0  20945-3 0  9999
2 43188  97.5629  73.2257 0009575 177.4866 182.6414 15.11915090403842
S-Net C
1 43189U 18014K   25170.63307760  .00003281  00000-0  19523-3 0  9993
2 43189  97.5648  73.5768 0011332 170.3644 189.7806 15.11888265402445
Ten-Koh
1 43677U 18084G   25170.33130045  .00001909  00000-0  15622-3 0  9990
2 43677  98.0863 342.9737 0006074 218.8470 141.2317 15.00617013361705
PO-101
1 43678U 18084H   25170.80608596  .00001192  00000-0  10532-3 0  9993
2 43678  98.1031 347.3214 0007548 253.4129 106.6264 14.98370274361916
QO-100
1 43700U 18090A   25170.57968365  .00000156  00000-0  00000-0 0  9998
2 43700   0.0187  22.4649 0002221 103.2258  16.8300  1.00271773 24043
MinXSS-2
1 43758U 18099A   25170.16698535  .00013014  00000-0  50742-3 0  9992
2 43758  97.5014 236.2340 0013235 120.7066 239.5478 15.25997562358433
AO-95
1 43770U 18099N   25170.14525846  .00007231  00000-0  36466-3 0  9999
2 43770  97.4907 228.1250 0011138 170.5840 189.5605 15.17389741358004
RANGE-A
1 43773U 18099R   25170.54641129  .00004172  00000-0  26613-3 0  9993
2 43773  97.4476 218.6590 0012153 151.2964 208.8936 15.09172863357726
MOVE-II
1 43780U 18099Y   25170.79211799  .00303745  00000-0  13972-2 0  9995
2 43780  97.4628 247.2569 0005530 206.0084 154.0908 15.82802725359417
SNUSat 2
1 43782U 18099AA  25170.11952406  .00005961  00000-0  32437-3 0  9997
2 43782  97.4588 224.7735 0013617 118.6794 241.5809 15.14743541357943
SnugLite
1 43784U 18099AC  25170.10750151  .00007750  00000-0  38722-3 0  9992
2 43784  97.4400 224.3413 0005093 115.9696 244.2063 15.17726041358084
ITASat 1
1 43786U 18099AE  25170.73080756  .00004518  00000-0  25858-3 0  9995
2 43786  97.4559 224.8533 0014910 165.1914 194.9756 15.13046560357993
EAGLET 1
1 43790U 18099AJ  25170.43018170  .00004274  00000-0  27283-3 0  9991
2 43790  97.4755 224.4838 0012919 150.0907 210.1063 15.09131128357556
ESEO
1 43792U 18099AL  25170.39052463  .00001443  00000-0  11237-3 0  9998
2 43792  97.4486 217.5784 0014904 124.2918 235.9721 15.02659368357294
CSIM
1 43793U 18099AM  25170.16296786  .00075491  00000-0  44620-3 0  9998
2 43793  97.4784 248.8122 0005400 166.6336 193.5074 15.77887294359154
JO-97
1 43803U 18099AX  25170.38733092  .00010033  00000-0  45436-3 0  9997
2 43803  97.4655 229.3765 0009130 110.0574 250.1645 15.21038003358261
Suomi 100
1 43804U 18099AY  25170.41761855  .00007649  00000-0  37242-3 0  9995
2 43804  97.4719 228.6747 0014002 112.5295 247.7423 15.18564957358192
ISAT
1 43879U 18111D   25170.50073735  .00014540  00000-0  49860-3 0  9992
2 43879  97.5949  85.1145 0009682 150.7954 209.3829 15.30240164355211
UWE-4
1 43880U 18111E   25170.50720376  .00011363  00000-0  44164-3 0  9996
2 43880  97.5892  83.5302 0012262 166.2853 193.8721 15.26152898355146
Sparrow
1 43881U 18111F   25170.21330751  .00017365  00000-0  57264-3 0  9992
2 43881  97.6094  87.7354 0006437 185.0248 175.0929 15.31491778355263
Prox-1
1 44339U 19036A   25170.73095727  .00008588  00000-0  10719-2 0  9996
2 44339  23.9978 355.1066 0006814 188.4829 171.5553 14.80149869319615
SONATE
1 44400U 19038Q   25170.34456096  .00489735  11021-3  83765-3 0  9991
2 44400  97.6770 198.7918 0008774 191.2060 168.9025 16.02449050331131
Taurus 1
1 44530U 19059C   25170.82845672  .00004456  00000-0  82297-3 0  9997
2 44530  98.6078 310.7089 0008852  12.6698 347.4725 14.65956486305441
Duchifat 3
1 44854U 19089C   25170.69290019  .00034826  00000-0  66084-3 0  9993
2 44854  36.9430 290.8566 0003740  30.2179 329.8793 15.47381152304515
TO-108
1 44881U 19093C   25170.79767750  .00000739  00000-0  91443-4 0  9994
2 44881  97.7923 246.2339 0013468 192.1690 167.9201 14.85620617297591
